Date,TemperatureHighF,TemperatureAvgF,TemperatureLowF,DewpointHighF,DewpointAvgF,DewpointLowF,HumidityHigh,HumidityAvg,HumidityLow,PressureMaxIn,PressureMinIn,WindSpeedMaxMPH,WindSpeedAvgMPH,GustSpeedMaxMPH,PrecipitationSumIn
2013-4-1,79,63,54,73,56,46,82,78,73,30.09,29.84,4,0,14,0.03
2013-4-2,69,52,36,63,45,29,80,77,75,30.32,30.09,5,0,8,0.00
2013-4-3,68,52,40,62,44,33,80,77,75,30.44,30.26,3,0,7,0.00
2013-4-4,52,44,40,45,37,33,77,75,73,30.53,30.09,3,0,7,0.59
2013-4-5,69,50,41,63,42,32,80,75,71,30.16,29.95,4,0,5,0.27
2013-4-6,73,55,41,67,48,33,81,78,74,30.41,30.16,7,0,10,0.00
2013-4-7,79,58,36,73,51,29,82,79,75,30.46,30.15,7,0,9,0.00
2013-4-8,84,68,55,78,62,48,83,80,77,30.29,30.07,7,0,11,0.00
2013-4-9,91,74,59,85,68,52,83,81,77,30.27,30.05,6,0,10,0.00
2013-4-10,95,76,63,89,70,56,84,81,79,30.18,29.95,9,0,10,0.00
2013-4-11,86,73,63,80,67,56,83,81,79,30.08,29.84,6,0,10,0.00
2013-4-12,85,73,66,79,66,57,83,80,74,29.89,29.64,10,0,12,0.19
2013-4-13,82,66,52,76,60,45,82,80,77,30.12,29.84,3,0,6,0.00
2013-4-14,90,67,45,84,60,38,83,80,74,30.24,30.03,2,0,9,0.00
2013-4-15,77,67,59,71,60,52,82,80,78,30.30,30.13,6,0,9,0.00
2013-4-16,83,66,57,77,59,49,82,78,74,30.40,30.24,4,0,6,0.00
2013-4-17,90,70,57,84,63,49,83,79,74,30.34,30.13,0,0,7,0.00
2013-4-18,83,70,61,77,64,54,82,80,77,30.29,30.10,2,0,8,0.00
2013-4-19,84,72,66,78,65,57,83,78,74,30.14,29.75,6,0,11,0.71
2013-4-20,72,58,46,66,51,39,81,78,74,30.42,29.90,4,0,6,0.07
2013-4-21,68,54,41,62,47,33,80,77,74,30.61,30.42,6,0,8,0.00
2013-4-22,68,52,38,62,45,31,80,77,75,30.64,30.36,4,0,8,0.00
2013-4-23,75,57,49,69,50,42,81,78,76,30.41,30.19,0,0,5,0.03
2013-4-24,84,64,46,78,58,38,83,79,74,30.28,30.02,7,0,10,0.00
2013-4-25,79,65,50,73,59,43,82,80,77,30.41,30.09,0,0,5,0.00
2013-4-26,82,62,48,76,55,40,82,78,74,30.52,30.37,3,0,5,0.00
2013-4-27,81,65,51,75,59,44,82,80,77,30.50,30.33,0,0,4,0.00
2013-4-28,63,59,55,56,52,47,79,78,74,30.38,30.22,0,0,0,0.31
2013-4-29,73,63,55,66,55,47,80,76,73,30.24,30.03,0,0,2,0.61
2013-4-30,69,62,57,63,55,50,80,77,74,30.28,30.11,0,0,3,0.06